Weather History for KIKK - January, 2014

Change the Weather History Date:

Wednesday, January 1, 2014

  Actual Average Record
Temperature  
Mean Temperature 18 °F -  
Max Temperature 21 °F 31 °F 50 °F (2011)
Min Temperature 16 °F 15 °F -14 °F (1977)
Degree Days  
Heating Degree Days 46    
Moisture  
Dew Point 16 °F    
Average Humidity 85    
Maximum Humidity 89    
Minimum Humidity 80    
Precipitation  
Precipitation 0.00 in - - ()
Sea Level Pressure  
Sea Level Pressure 30.19 in    
Wind  
Wind Speed 12 mph (NE)    
Max Wind Speed 17 mph    
Max Gust Speed 22 mph    
Visibility 8 miles    
Events Snow    
Averages and records for this station are not official NWS values.
T = Trace of Precipitation, MM = Missing Value Source: NWS Daily Summary

Daily Weather History Graph

Daily Weather History Graph

Search for Another Location

Airport or City:

Trip Planner

Search our weather history database for the weather conditions in past years. The results will help you decide how hot, cold, wet, or windy it might be!

Date:

Astronomy

Jan. 01, 2014 Rise Set
Actual Time 7:16 AM CST 4:33 PM CST
Civil Twilight 6:45 AM CST 5:04 PM CST
Nautical Twilight 6:11 AM CST 5:39 PM CST
Astronomical Twilight 5:37 AM CST 6:12 PM CST
Moon 7:06 AM CST (1/1) 5:19 PM CST (1/1)
Length of Visible Light 10h 19m
Length of Day
9h 17m
New Moon, 0% of the Moon is Illuminated
Jan 1
New Moon
Jan 7
First Quarter
Jan 15
Full
Jan 23
Last Quarter
Jan 30
New

Hourly Weather History & Observations

Time (CST) Temp. Windchill Dew Point Humidity Pressure Visibility Wind Dir Wind Speed Gust Speed Precip Events Conditions
12:15 AM 17.2 °F 6.0 °F 13.6 °F 86% 30.26 in 10.0 mi ENE 9.2 mph - N/A   Overcast
12:35 AM 17.6 °F 5.7 °F 14.0 °F 86% 30.26 in 10.0 mi ENE 10.4 mph - N/A   Overcast
12:55 AM 17.6 °F 5.0 °F 14.2 °F 86% 30.26 in 10.0 mi ENE 11.5 mph - N/A   Overcast
1:15 AM 17.8 °F 6.6 °F 14.5 °F 87% 30.26 in 10.0 mi ENE 9.2 mph - N/A   Overcast
1:35 AM 18.1 °F 6.3 °F 14.9 °F 87% 30.25 in 10.0 mi ENE 10.4 mph - N/A   Overcast
1:55 AM 18.5 °F 6.8 °F 15.1 °F 86% 30.26 in 10.0 mi ENE 10.4 mph - N/A   Overcast
2:15 AM 18.5 °F 6.8 °F 15.3 °F 87% 30.25 in 10.0 mi ENE 10.4 mph - N/A   Overcast
2:35 AM 18.5 °F 7.5 °F 15.4 °F 88% 30.25 in 10.0 mi ENE 9.2 mph - N/A   Overcast
2:55 AM 19.0 °F 8.2 °F 15.6 °F 87% 30.25 in 10.0 mi ENE 9.2 mph - N/A   Overcast
3:15 AM 19.2 °F 5.8 °F 15.8 °F 87% 30.23 in 10.0 mi ENE 13.8 mph - N/A   Overcast
3:35 AM 19.4 °F 7.2 °F 15.8 °F 86% 30.22 in 10.0 mi ENE 11.5 mph - N/A   Overcast
3:55 AM 19.4 °F 7.9 °F 16.0 °F 87% 30.22 in 10.0 mi East 10.4 mph - N/A   Overcast
4:15 AM 19.8 °F 7.7 °F 16.2 °F 86% 30.22 in 10.0 mi ENE 11.5 mph - N/A   Overcast
4:35 AM 19.9 °F 7.9 °F 16.3 °F 86% 30.22 in 10.0 mi ENE 11.5 mph - N/A   Overcast
4:55 AM 20.1 °F 7.5 °F 16.5 °F 86% 30.22 in 10.0 mi ENE 12.7 mph - N/A   Overcast
5:15 AM 20.1 °F 8.8 °F 16.5 °F 86% 30.22 in 10.0 mi ENE 10.4 mph - N/A   Overcast
5:35 AM 20.3 °F 7.2 °F 16.7 °F 86% 30.21 in 10.0 mi ENE 13.8 mph - N/A   Overcast
5:55 AM 20.3 °F 7.7 °F 16.9 °F 87% 30.21 in 10.0 mi ENE 12.7 mph 18.4 mph N/A   Overcast
6:15 AM 20.1 °F 7.5 °F 16.7 °F 87% 30.21 in 10.0 mi ENE 12.7 mph - N/A   Overcast
6:35 AM 20.1 °F 6.9 °F 16.7 °F 87% 30.21 in 10.0 mi ENE 13.8 mph - N/A   Overcast
6:55 AM 19.9 °F 6.7 °F 16.5 °F 87% 30.21 in 10.0 mi ENE 13.8 mph 17.3 mph N/A   Mostly Cloudy
7:15 AM 19.4 °F 6.6 °F 15.8 °F 86% 30.20 in 10.0 mi ENE 12.7 mph 19.6 mph N/A   Overcast
7:35 AM 19.4 °F 6.6 °F 16.0 °F 87% 30.21 in 10.0 mi ENE 12.7 mph - N/A   Overcast
7:55 AM 19.8 °F 5.9 °F 16.2 °F 86% 30.21 in 10.0 mi ENE 15.0 mph - N/A   Overcast
8:15 AM 19.8 °F 6.5 °F 16.2 °F 86% 30.22 in 10.0 mi ENE 13.8 mph - N/A   Scattered Clouds
8:35 AM 20.1 °F 5.9 °F 16.2 °F 85% 30.22 in 10.0 mi ENE 16.1 mph - N/A   Clear
8:55 AM 20.3 °F 6.1 °F 16.3 °F 85% 30.22 in 10.0 mi ENE 16.1 mph 19.6 mph N/A   Scattered Clouds
9:15 AM 20.1 °F 5.9 °F 15.8 °F 83% 30.23 in 10.0 mi ENE 16.1 mph - N/A   Scattered Clouds
9:35 AM 20.3 °F 5.7 °F 16.3 °F 85% 30.22 in 10.0 mi ENE 17.3 mph - N/A   Mostly Cloudy
9:55 AM 20.7 °F 7.6 °F 16.5 °F 84% 30.23 in 10.0 mi NE 13.8 mph 17.3 mph N/A   Overcast
10:15 AM 20.8 °F 7.3 °F 16.7 °F 84% 30.23 in 10.0 mi ENE 15.0 mph 18.4 mph N/A   Overcast
10:35 AM 21.0 °F 7.1 °F 16.7 °F 83% 30.22 in 10.0 mi NE 16.1 mph 19.6 mph N/A   Overcast
10:55 AM 20.8 °F 6.8 °F 16.2 °F 82% 30.21 in 10.0 mi ENE 16.1 mph 21.9 mph N/A   Overcast
11:15 AM 21.2 °F 6.8 °F 16.7 °F 83% 30.21 in 10.0 mi ENE 17.3 mph - N/A   Overcast
11:35 AM 21.2 °F 7.8 °F 16.5 °F 82% 30.20 in 10.0 mi NE 15.0 mph 20.7 mph N/A   Overcast
11:55 AM 21.0 °F 6.6 °F 16.5 °F 83% 30.19 in 10.0 mi NE 17.3 mph 20.7 mph N/A   Overcast
12:15 PM 21.2 °F 8.9 °F 16.5 °F 82% 30.18 in 10.0 mi NE 12.7 mph 18.4 mph N/A   Overcast
12:35 PM 21.0 °F 6.6 °F 16.3 °F 82% 30.17 in 10.0 mi NE 17.3 mph 21.9 mph N/A   Overcast
12:55 PM 21.2 °F 8.9 °F 16.5 °F 82% 30.17 in 10.0 mi NE 12.7 mph - N/A   Overcast
1:15 PM 21.2 °F 7.8 °F 16.3 °F 82% 30.17 in 10.0 mi NE 15.0 mph - N/A   Overcast
1:35 PM 21.2 °F 7.3 °F 16.0 °F 80% 30.17 in 10.0 mi NE 16.1 mph - N/A   Overcast
1:55 PM 21.6 °F 8.2 °F 16.5 °F 81% 30.17 in 10.0 mi NE 15.0 mph 18.4 mph N/A   Overcast
2:15 PM 21.2 °F 8.9 °F 16.2 °F 81% 30.17 in 10.0 mi NE 12.7 mph - N/A   Overcast
2:35 PM 21.2 °F 7.8 °F 16.3 °F 82% 30.17 in 10.0 mi ENE 15.0 mph - N/A   Overcast
2:55 PM 21.0 °F 8.6 °F 16.0 °F 81% 30.16 in 10.0 mi NE 12.7 mph - N/A   Overcast
3:15 PM 20.7 °F 7.1 °F 15.8 °F 81% 30.16 in 10.0 mi NE 15.0 mph - N/A   Overcast
3:35 PM 20.3 °F 7.2 °F 15.4 °F 81% 30.16 in 10.0 mi NE 13.8 mph - N/A   Overcast
3:55 PM 20.3 °F 6.6 °F 15.6 °F 82% 30.16 in 7.0 mi NE 15.0 mph 18.4 mph N/A   Overcast
4:15 PM 20.1 °F 8.8 °F 16.0 °F 84% 30.16 in 4.0 mi NE 10.4 mph - N/A Snow Light Snow
4:35 PM 19.4 °F 7.9 °F 16.3 °F 88% 30.16 in 3.0 mi NNE 10.4 mph - N/A Snow Light Snow
4:55 PM 19.4 °F 6.6 °F 16.2 °F 87% 30.16 in 5.0 mi NE 12.7 mph - N/A Snow Light Snow
5:15 PM 19.4 °F 7.2 °F 15.6 °F 85% 30.17 in 7.0 mi NE 11.5 mph - N/A Snow Light Snow
5:35 PM 19.2 °F 7.0 °F 15.4 °F 85% 30.17 in 4.0 mi NNE 11.5 mph 17.3 mph N/A Snow Light Snow
5:55 PM 19.2 °F 9.3 °F 16.0 °F 87% 30.17 in 2.5 mi NE 8.1 mph - N/A Snow Light Snow
6:15 PM 19.0 °F 6.8 °F 15.8 °F 87% 30.16 in 4.0 mi NE 11.5 mph - N/A Snow Light Snow
6:35 PM 19.0 °F 6.8 °F 15.8 °F 87% 30.17 in 5.0 mi NE 11.5 mph - N/A Snow Light Snow
6:55 PM 19.0 °F 8.2 °F 15.8 °F 87% 30.17 in 3.0 mi NE 9.2 mph - N/A Snow Light Snow
7:15 PM 18.5 °F 6.8 °F 15.8 °F 89% 30.17 in 3.0 mi NE 10.4 mph - N/A Snow Light Snow
7:35 PM 18.5 °F 8.4 °F 15.8 °F 89% 30.16 in 1.8 mi NE 8.1 mph - N/A Snow Light Snow
7:55 PM 18.5 °F 7.5 °F 15.4 °F 88% 30.16 in 4.0 mi NNE 9.2 mph - N/A Snow Light Snow
8:15 PM 18.3 °F 7.3 °F 15.4 °F 89% 30.15 in 3.0 mi NNE 9.2 mph - N/A Snow Light Snow
8:35 PM 18.0 °F 6.1 °F 14.7 °F 87% 30.16 in 5.0 mi NNE 10.4 mph - N/A Snow Light Snow
8:55 PM 17.6 °F 5.0 °F 14.0 °F 86% 30.15 in 4.0 mi NE 11.5 mph - N/A Snow Light Snow
9:15 PM 17.4 °F 5.4 °F 14.0 °F 86% 30.15 in 4.0 mi NNE 10.4 mph 16.1 mph N/A Snow Light Snow
9:35 PM 17.2 °F 3.9 °F 14.0 °F 87% 30.15 in 3.0 mi NNE 12.7 mph 16.1 mph N/A Snow Light Snow
9:55 PM 16.9 °F 4.8 °F 14.0 °F 88% 30.15 in 2.5 mi NNE 10.4 mph - N/A Snow Light Snow
10:15 PM 16.7 °F 4.5 °F 13.5 °F 87% 30.14 in 5.0 mi NNE 10.4 mph - N/A Snow Light Snow
10:35 PM 16.7 °F 6.2 °F 13.5 °F 87% 30.14 in 5.0 mi NNE 8.1 mph - N/A Snow Light Snow
10:55 PM 16.5 °F 3.6 °F 12.7 °F 85% 30.14 in 7.0 mi NNE 11.5 mph 19.6 mph N/A Snow Light Snow
11:15 PM 16.5 °F 3.6 °F 12.7 °F 85% 30.14 in 7.0 mi NNE 11.5 mph - N/A   Overcast
11:35 PM 16.5 °F 4.3 °F 12.7 °F 85% 30.13 in 4.0 mi NNE 10.4 mph 18.4 mph N/A Snow Light Snow
11:55 PM 16.2 °F 3.2 °F 12.6 °F 86% 30.12 in 4.0 mi NNE 11.5 mph 18.4 mph N/A Snow Light Snow